星链-5819 (STARLINK-5819 )

导读

STARLINK-5819是美国太空探索技术公司(SpaceX)星链(Starlink)星座的成员卫星,于2023年3月3日发射升空。星链项目旨在构建全球卫星互联网星座,该卫星属于低轨通信卫星,入轨后承担对地网络通信传输任务,是星链大规模组网阶段补充发射的卫星之一,助力完善全球覆盖的卫星通信网络。

Basic Information
目录编号:
55780
目录名称:
STARLINK-5819
国际标识:
2023-028AR
轨道中心:
EARTH
卫星名称:
星链-5819
卫星全名:
星链-5819 (STARLINK-5819 )
卫星状态:
在轨 (已飞行1282 天)
发射日期:
2023-03-03 UTC
国别 :
美国 (US)
星等 :
--
Orbit Information
数据来源 国际轨道数据
星历时间: 2026-09-04T10:44:58+0800
21小时前
查看轨道信息
半长轴: 6950.187km
偏心率: 0.0002847
轨道倾角: 70.000°
近地点辐角 269.502°
升交点赤经 134.416°
平近点角 90.582°
近地点: 570.071km
远地点: 574.029km
周期: 96.107分钟
每日圈数: 14.98332
Detailed Information
固有亮度:
5
最大亮度:
2.5
卫星平台:
Starlink v1.5
覆盖范围:
全球
运营商:
太空探索技术公司
运营商所在国:
美国
制造商(研发单位):
太空探索技术公司
制造商所在国:
美国
使用方式:
暂无
Satellite Introduction
星链(Starlink)计划是由太空探索技术公司(SpaceX)提出的一个巨型低轨卫星互联网星座项目,计划在2019年至2024年间在太空搭建由约1.2万颗卫星组成的“星链”网络,其中1584颗将部署在地球上空550千米处的近地轨道,并从2020年开始工作。该卫星仍在工作。
2D Orbit Map
3D Orbit Map
Orbit Altitude Analysis Chart
Orbit Inclination Analysis Chart
Orbit Comprehensive Analysis Chart
View Comprehensive Chart
Conjunction Data List
Event ID Objects TCA Miss Dist (km) Collision Risk Probability Collision Risk Index (CRI) Action
CDM_260907-051004-435005-578022
2026-09-07T
05:10:40+0000
0.887 km
远距离
3.19818E-5 中风险 0.65
CDM_260905-192603-559405-578022
2026-09-05T
19:26:11+0000
1.288 km
极远距离
1.082297E-5 中风险 0.56
CDM_260907-024604-435005-578022
2026-09-07T
02:46:33+0000
1.346 km
极远距离
7.602528E-6 低风险 0.53